User: anonymous   Login
Location: Utrecht
(52.0830°N, 5.1330°E)
Time: 21:29:58
(UTC+02:00)
Language:

Cosmos 1092 Rocket - Orbit

View from above orbital plane
View from above orbital plane
View from above satellite
View from above satellite

Ground track
Ground track

The orbit data is extracted from the following two-line orbital elements,

1 11327U 79030B   17263.91622230 +.00000078 +00000-0 +64136-4 0  9996
2 11327 082.9497 224.7660 0026155 272.0625 140.2438 13.76969353932104
Epoch (UTC): 20 September 2017 21:59:21
Eccentricity: 0.0026155
inclination: 82.9497°
perigee height: 955 km
apogee height: 994 km
right ascension of ascending node: 224.7660°
argument of perigee: 272.0625°
revolutions per day: 13.76969353
mean anomaly at epoch: 140.2438°
orbit number at epoch: 93210

The dashed part of the orbit path shows where the satellite is in the earth's shadow,  

DLR